Regional Weather Roundup
Issued by NWS

Home | Current Version | Previous Version | Graphics & Text | Print | Product List | Glossary On
Versions: 1 2 3 4 5 6 7 8 9 10 11 12 13 14 15 16 17 18 19 20 21 22 23 24 25 26 27 28 29 30 31 32 33 34 35 36 37 38 39 40 41 42 43 44 45 46 47 48 49 50
000
ASUS43 KLMK 020610
RWRKY
KENTUCKY REGIONAL WEATHER ROUNDUP
NATIONAL WEATHER SERVICE LOUISVILLE KY
100 AM EST MON MAR 02 2015

NOTE "FAIR" INDICATES FEW OR NO CLOUDS BELOW 12,000 FEET
WITH NO SIGNIFICANT WEATHER AND/OR OBSTRUCTIONS TO VISIBILITY.

KYZ001>023-026-027-061>063-070>075-020700-
WESTERN AND SOUTH CENTRAL KENTUCKY

CITY           SKY/WX    TMP DP  RH WIND       PRES   REMARKS
PADUCAH        CLOUDY    32  26  78 N9        30.44S WCI  24
HENDERSON      MOCLDY    30  23  74 NW9G17    30.45S WCI  22
OWENSBORO      CLOUDY    30  25  80 N14       30.43S WCI  20
HOPKINSVILLE   DRIZZLE   32  32 100 N6        30.40F WCI  26
BOWLING GREEN  LGT RAIN  35  31  85 NW7       30.39R FOG     WCI  29
GLASGOW        LGT RAIN  35  35 100 N5        30.37R WCI  31
$$

KYZ024-025-028>034-038-045-046-053-020700-
NORTH CENTRAL KENTUCKY

CITY           SKY/WX    TMP DP  RH WIND       PRES   REMARKS
LOUISVILLE/SDF CLOUDY    33  28  81 NW13      30.39R WCI  24
LOUISVILLE/LOU CLOUDY    33  29  85 NW13      30.38S WCI  24
FORT KNOX      CLOUDY    32  30  92 NW10      30.36R WCI  23
$$

KYZ035>037-039>044-047>052-055>060-089>105-020700-
NORTHEAST KENTUCKY

CITY           SKY/WX    TMP DP  RH WIND       PRES   REMARKS
LEXINGTON      CLOUDY    33  32  96 NW9       30.33S FOG     WCI  25
COVINGTON      CLOUDY    31  25  78 NW16      30.34R WCI  20
FRANKFORT      CLOUDY    33  30  88 NW13      30.33S WCI  24
$$

KYZ054-064>069-076>088-106>120-020700-
SOUTHEAST KENTUCKY

CITY           SKY/WX    TMP DP  RH WIND       PRES   REMARKS
JACKSON        LGT RAIN  37  36  96 NW9G17    30.27S FOG     WCI  30
LONDON         RAIN      42  38  85 NW5       30.29R FOG
SOMERSET       LGT RAIN  37  37 100 N3        30.33R
MIDDLESBORO    LGT RAIN  35  35 100 CALM      30.26F VSB 1/2
MONTICELLO     CLOUDY    39  38  97 NW10      30.36R FOG     WCI  32
$$



USA.gov is the U.S. government's official web portal to all federal, state and local government web resources and services.